Weather History for Lawrence, KS

Change the Weather History Date:

Thursday, March 7, 2013

  Actual Average Record
Temperature  
Mean Temperature 38 °F 41 °F  
Max Temperature 52 °F 53 °F 73 °F (2006)
Min Temperature 23 °F 29 °F 10 °F (2008)
Degree Days  
Heating Degree Days 27 24  
Month to date heating degree days 229 176  
Since 1 July heating degree days 4060 4191  
Cooling Degree Days 0 0  
Month to date cooling degree days 0 0  
Year to date cooling degree days 0 0  
Moisture  
Dew Point 25 °F    
Average Humidity 62    
Maximum Humidity 81    
Minimum Humidity 42    
Precipitation  
Precipitation 0.00 in 0.08 in 1.00 in (2009)
Month to date precipitation T 0.55  
Year to date precipitation 2.72 2.86  
Sea Level Pressure  
Sea Level Pressure 30.23 in    
Wind  
Wind Speed 9 mph (ESE)    
Max Wind Speed 18 mph    
Max Gust Speed 22 mph    
Visibility 7 miles    
Events      
T = Trace of Precipitation, MM = Missing Value Source: NWS Daily Summary

Daily Weather History Graph

Daily Weather History Graph

Search for Another Location

Airport:

Trip Planner

Search our weather history database for the weather conditions in past years. The results will help you decide how hot, cold, wet, or windy it might be!

Date:

Astronomy

Mar. 07, 2013 Rise Set
Actual Time 6:44 AM CST 6:20 PM CST
Civil Twilight 6:17 AM CST 6:46 PM CST
Nautical Twilight 5:46 AM CST 7:17 PM CST
Astronomical Twilight 5:15 AM CST 7:48 PM CST
Moon 3:42 AM CST (3/7) 2:10 PM CST (3/7)
Length of Visible Light 12h 29m
Length of Day
11h 36m
Waning Crescent, 20% of the Moon is Illuminated
Mar 7
Waning Crescent
Mar 11
New
Mar 19
First Quarter
Mar 27
Full
Apr 2
Last Quarter

Hourly Weather History & Observations

Time (CST) Temp. Windchill Dew Point Humidity Pressure Visibility Wind Dir Wind Speed Gust Speed Precip Events Conditions
12:52 AM 25.0 °F 17.1 °F 19.0 °F 78% 30.31 in 8.0 mi ESE 6.9 mph - N/A   Clear
1:52 AM 24.1 °F 17.0 °F 18.0 °F 77% 30.32 in 7.0 mi ESE 5.8 mph - N/A   Clear
2:52 AM 24.1 °F 18.2 °F 18.0 °F 77% 30.30 in 7.0 mi ESE 4.6 mph - N/A   Clear
3:52 AM 24.1 °F 15.2 °F 19.0 °F 81% 30.29 in 7.0 mi East 8.1 mph - N/A   Clear
4:52 AM 24.1 °F 16.0 °F 18.0 °F 77% 30.29 in 7.0 mi East 6.9 mph - N/A   Clear
5:52 AM 24.1 °F 16.0 °F 18.0 °F 77% 30.29 in 7.0 mi East 6.9 mph - N/A   Clear
6:52 AM 24.1 °F 15.2 °F 18.0 °F 77% 30.28 in 5.0 mi East 8.1 mph - N/A   Haze
7:52 AM 28.0 °F 20.0 °F 21.0 °F 75% 30.29 in 5.0 mi ESE 8.1 mph - N/A   Haze
8:52 AM 32.0 °F 23.0 °F 24.1 °F 73% 30.29 in 6.0 mi ESE 11.5 mph - N/A   Haze
9:52 AM 37.0 °F 30.4 °F 25.0 °F 62% 30.28 in 7.0 mi SE 9.2 mph - N/A   Clear
10:52 AM 39.9 °F 33.4 °F 26.1 °F 58% 30.27 in 6.0 mi SE 10.4 mph - N/A   Haze
11:52 AM 44.1 °F 39.0 °F 28.0 °F 53% 30.26 in 7.0 mi ESE 9.2 mph - N/A   Clear
12:52 PM 46.9 °F - 28.9 °F 50% 30.22 in 7.0 mi SE 12.7 mph - N/A   Clear
1:52 PM 50.0 °F - 28.9 °F 44% 30.19 in 7.0 mi ESE 13.8 mph - N/A   Clear
2:52 PM 50.0 °F - 30.0 °F 46% 30.17 in 7.0 mi SE 16.1 mph - N/A   Clear
3:52 PM 51.1 °F - 32.0 °F 48% 30.15 in 8.0 mi SE 16.1 mph - N/A   Clear
4:52 PM 52.0 °F - 32.0 °F 47% 30.13 in 8.0 mi SE 13.8 mph - N/A   Clear
5:52 PM 46.0 °F 42.5 °F 32.0 °F 58% 30.15 in 7.0 mi East 6.9 mph - N/A   Clear
6:52 PM 41.0 °F 36.4 °F 30.0 °F 65% 30.16 in 8.0 mi East 6.9 mph - N/A   Clear
7:52 PM 41.0 °F 34.7 °F 28.9 °F 62% 30.17 in 7.0 mi East 10.4 mph - N/A   Clear
8:52 PM 37.0 °F 30.4 °F 28.9 °F 73% 30.19 in 6.0 mi East 9.2 mph - N/A   Haze
9:52 PM 36.0 °F 29.0 °F 28.0 °F 73% 30.19 in 6.0 mi East 9.2 mph - N/A   Haze
10:52 PM 35.1 °F 29.3 °F 28.0 °F 76% 30.20 in 6.0 mi East 6.9 mph - N/A   Haze
11:52 PM 36.0 °F 29.6 °F 28.0 °F 73% 30.20 in 7.0 mi East 8.1 mph - N/A   Clear